DW0307 Weather Reports


Display with metric or nautical units.
time (UTC)temp
F
wind
direction
speed
MPH
gust
MPH
rain 1hr
in
rain 24hr
in
rain mn
in
humidity
%
barometer
mb
20260902064557 62 86 0.0 4.0 0.00 0.00 0.00 68 1022.6
20260902063107 60 69 2.0 3.0 0.00 0.00 0.00 71 1022.7
20260902061609 58 281 1.0 3.0 0.00 0.00 0.00 76 1022.6
20260902060052 56 277 1.0 3.0 0.00 0.00 0.00 84 1022.8
20260902054553 52 0 0.0 2.0 0.00 0.00 0.00 88 1022.8
20260902053105 49 284 2.0 3.0 0.00 0.00 0.00 88 1022.8
20260902051606 48 0 1.0 3.0 0.00 0.00 0.00 89 1022.7
20260902050052 47 0 0.0 2.0 0.00 0.00 0.00 90 1022.7
20260902044606 44 0 0.0 1.0 0.00 0.00 0.00 90 1022.5
20260902043103 42 284 1.0 2.0 0.00 0.00 0.00 89 1022.4
20260902041555 41 0 0.0 0.0 0.00 0.00 0.00 89 1022.5
20260902040054 42 0 0.0 2.0 0.00 0.00 0.00 88 1022.4
20260902034603 41 0 0.0 1.0 0.00 0.00 0.00 88 1022.6
20260902033056 42 0 0.0 0.0 0.00 0.00 0.00 89 1022.5
20260902031600 42 0 0.0 2.0 0.00 0.00 0.00 88 1022.6
20260902030056 42 284 1.0 3.0 0.00 0.00 0.00 88 1022.4
20260902024557 42 284 1.0 3.0 0.00 0.00 0.00 88 1022.4
20260902023048 42 0 0.0 3.0 0.00 0.00 0.00 88 1022.5
20260902021552 41 294 2.0 4.0 0.00 0.00 0.00 87 1022.4
20260902020053 42 0 0.0 3.0 0.00 0.00 0.00 87 1022.4
20260902014547 42 296 0.0 2.0 0.00 0.00 0.00 87 1022.5
20260902013107 42 295 1.0 2.0 0.00 0.00 0.00 87 1022.5
20260902011553 43 296 1.0 4.0 0.00 0.00 0.00 87 1022.5
20260902010049 42 286 3.0 6.0 0.00 0.00 0.00 86 1022.6
20260902004559 44 303 0.0 2.0 0.00 0.00 0.00 86 1022.4
20260902003101 45 0 0.0 0.0 0.00 0.00 0.00 86 1022.5
20260902001554 45 303 0.0 2.0 0.00 0.00 0.00 86 1022.3
20260902000104 45 302 0.0 2.0 0.00 0.00 0.00 86 1022.2
20260901234607 44 302 1.0 2.0 0.00 0.00 0.00 85 1022.2
20260901233056 44 303 0.0 3.0 0.00 0.00 0.00 85 1022.0
20260901231604 45 303 2.0 3.0 0.00 0.00 0.00 84 1022.0
20260901230103 45 304 2.0 4.0 0.00 0.00 0.00 84 1022.0
20260901224549 46 304 1.0 3.0 0.00 0.00 0.00 83 1022.0
20260901223054 47 304 1.0 4.0 0.00 0.00 0.00 82 1021.9
20260901221606 47 304 1.0 5.0 0.00 0.00 0.00 81 1022.0
20260901220051 48 238 1.0 4.0 0.00 0.00 0.00 80 1022.0
20260901214546 50 184 1.0 3.0 0.00 0.00 0.00 78 1021.9
20260901213056 51 0 0.0 3.0 0.00 0.00 0.00 78 1021.9
20260901211550 53 182 1.0 5.0 0.00 0.00 0.00 75 1021.7
20260901210048 53 195 2.0 4.0 0.00 0.00 0.00 75 1021.6
20260901204554 55 259 2.0 6.0 0.00 0.00 0.00 72 1021.5
20260901203057 56 125 6.0 9.0 0.00 0.00 0.00 72 1021.4
20260901201550 56 0 1.0 4.0 0.00 0.00 0.00 72 1021.4
20260901200047 55 15 3.0 8.0 0.00 0.00 0.00 72 1021.4
20260901194603 58 171 1.0 5.0 0.00 0.00 0.00 69 1021.4
20260901193054 59 0 1.0 4.0 0.00 0.00 0.00 67 1021.4
20260901191550 60 0 3.0 8.0 0.00 0.00 0.00 65 1021.5
20260901190048 60 260 0.0 5.0 0.00 0.00 0.00 64 1021.3
20260901184603 62 0 3.0 8.0 0.00 0.00 0.00 60 1020.9
20260901183115 63 115 6.0 11.0 0.00 0.00 0.00 58 1020.7
20260901181552 65 103 6.0 20.0 0.00 0.00 0.00 54 1020.4
20260901180051 66 116 9.0 14.0 0.00 0.00 0.00 55 1020.3
20260901174556 66 88 4.0 9.0 0.00 0.00 0.00 56 1020.1
20260901173139 66 78 3.0 9.0 0.00 0.00 0.00 56 1019.9
20260901171600 67 41 3.0 15.0 0.00 0.00 0.00 55 1019.7
20260901170057 67 275 10.0 16.0 0.00 0.00 0.00 55 1019.5
20260901164559 68 233 14.0 19.0 0.00 0.00 0.00 51 1019.2
20260901163111 70 207 15.0 21.0 0.00 0.00 0.00 49 1019.3
20260901161602 70 226 10.0 16.0 0.00 0.00 0.00 50 1019.2
20260901160056 71 250 10.0 19.0 0.00 0.00 0.00 47 1019.3
20260901154549 73 225 13.0 19.0 0.00 0.00 0.00 45 1019.2
20260901153059 73 234 12.0 20.0 0.00 0.00 0.00 47 1019.1
20260901151559 73 253 15.0 22.0 0.00 0.00 0.00 47 1019.1
20260901144600 74 262 16.0 21.0 0.00 0.00 0.00 45 1018.9
20260901143108 75 264 14.0 19.0 0.00 0.00 0.00 44 1018.8
20260901141614 75 265 16.0 22.0 0.00 0.00 0.00 44 1018.8
20260901140057 75 265 14.0 20.0 0.00 0.00 0.00 43 1018.8
20260901134552 75 252 15.0 25.0 0.00 0.00 0.00 44 1018.9
20260901133050 75 246 16.0 22.0 0.00 0.00 0.00 44 1019.1
20260901131558 76 262 15.0 23.0 0.00 0.00 0.00 44 1019.1
20260901130057 76 243 15.0 23.0 0.00 0.00 0.00 44 1019.1
20260901124550 76 242 15.0 22.0 0.00 0.00 0.00 43 1019.2
20260901123101 76 252 15.0 24.0 0.00 0.00 0.00 42 1019.2
20260901121605 76 243 14.0 21.0 0.00 0.00 0.00 43 1019.2
20260901120106 75 258 16.0 24.0 0.00 0.00 0.00 42 1019.3
20260901114552 75 242 15.0 21.0 0.00 0.00 0.00 45 1019.5
20260901113051 76 242 16.0 25.0 0.00 0.00 0.00 45 1019.4
20260901111604 75 250 16.0 24.0 0.00 0.00 0.00 45 1019.5
20260901110058 75 259 18.0 25.0 0.00 0.00 0.00 44 1019.3
20260901104554 76 235 17.0 27.0 0.00 0.00 0.00 44 1019.5
20260901103056 75 257 17.0 24.0 0.00 0.00 0.00 44 1019.6
20260901101556 75 245 16.0 26.0 0.00 0.00 0.00 45 1019.5
20260901094549 74 250 18.0 28.0 0.00 0.00 0.00 47 1019.3
20260901093057 73 250 18.0 28.0 0.00 0.00 0.00 48 1019.2
20260901091552 74 261 19.0 27.0 0.00 0.00 0.00 50 1019.1
20260901090049 73 249 18.0 26.0 0.00 0.00 0.00 51 1019.2
20260901084552 73 242 17.0 23.0 0.00 0.00 0.00 52 1019.3
20260901083056 73 233 17.0 23.0 0.00 0.00 0.00 53 1019.1
20260901081552 72 241 18.0 25.0 0.00 0.00 0.00 54 1019.2
20260901080106 72 255 15.0 22.0 0.00 0.00 0.00 57 1019.0
20260901074621 72 249 13.0 19.0 0.00 0.00 0.00 57 1019.1
20260901073055 71 245 10.0 17.0 0.00 0.00 0.00 59 1018.9
20260901071550 70 289 7.0 15.0 0.00 0.00 0.00 59 1018.7
20260901070055 69 302 3.0 8.0 0.00 0.00 0.00 60 1018.7